Kaktovik, AK

5:54 PM AKST on February 21, 2017 (GMT -0900)
Barter Island LRRS

Weather History for PABA - October, 2012

Change the Weather History Date:

Tuesday, October 30, 2012

  Actual Average Record
Temperature  
Mean Temperature 24 °F -  
Max Temperature 26 °F 15 °F 35 °F (2003)
Min Temperature 19 °F 6 °F -4 °F (2004)
Degree Days  
Heating Degree Days 42    
Moisture  
Dew Point 22 °F    
Average Humidity 97    
Maximum Humidity 100    
Minimum Humidity 74    
Precipitation  
Precipitation 0.00 in - - ()
Sea Level Pressure  
Sea Level Pressure 30.11 in    
Wind  
Wind Speed 34 mph (WNW)    
Max Wind Speed 40 mph    
Max Gust Speed 47 mph    
Visibility 2 miles    
Events Fog , Snow    
Averages and records for this station are not official NWS values.
T = Trace of Precipitation, MM = Missing Value Source: NWS Daily Summary

Daily Weather History Graph

Daily Weather History Graph

Search for Another Location

Airport or City:

Trip Planner

Search our weather history database for the weather conditions in past years. The results will help you decide how hot, cold, wet, or windy it might be!

Date:

Astronomy

Oct. 30, 2012 Rise Set
Actual Time 10:00 AM AKDT 4:34 PM AKDT
Civil Twilight 8:46 AM AKDT 5:47 PM AKDT
Nautical Twilight 7:32 AM AKDT 7:01 PM AKDT
Astronomical Twilight 6:21 AM AKDT 8:12 PM AKDT
Moon 3:44 PM AKDT (10/30) 12:15 PM AKDT (10/30)
Length of Visible Light 9h 01m
Length of Day
6h 34m
Full, 99% of the Moon is Illuminated
Oct 30
Full
Nov 6
Last Quarter
Nov 13
New
Nov 20
First Quarter
Nov 28
Full

Hourly Weather History & Observations

Time (AKDT) Temp. Windchill Dew Point Humidity Pressure Visibility Wind Dir Wind Speed Gust Speed Precip Events Conditions
12:01 AM 21.2 °F 1.9 °F 21.2 °F 100% 30.02 in 2.0 mi West 34.5 mph 42.6 mph 0.00 in Snow Light Snow
12:08 AM 21.2 °F 1.9 °F 21.2 °F 100% 30.02 in 0.8 mi West 34.5 mph 39.1 mph 0.00 in Snow Light Snow
12:27 AM 21.2 °F 1.2 °F 21.2 °F 100% 30.03 in 0.8 mi West 38.0 mph 42.6 mph 0.00 in Snow Light Snow
12:40 AM 21.2 °F 1.4 °F 21.2 °F 100% 30.03 in 0.5 mi West 36.8 mph 43.7 mph 0.00 in Fog , Snow Snow
12:48 AM 21.2 °F 1.7 °F 21.2 °F 100% 30.03 in 0.8 mi West 35.7 mph 43.7 mph 0.00 in Snow Light Snow
1:01 AM 21.0 °F 1.2 °F 21.0 °F 100% 30.04 in 0.8 mi West 36.8 mph 42.6 mph 0.00 in Snow Light Snow
1:42 AM 21.2 °F 1.9 °F 19.4 °F 93% 30.04 in 0.5 mi West 34.5 mph 43.7 mph 0.00 in Fog , Snow Snow
1:52 AM 21.2 °F 2.2 °F 19.4 °F 93% 30.04 in 0.5 mi West 33.4 mph 43.7 mph 0.00 in Fog , Snow Snow
2:01 AM 21.0 °F 1.4 °F 19.9 °F 96% 30.04 in 0.8 mi West 35.7 mph 41.4 mph 0.00 in Snow Light Snow
2:11 AM 21.2 °F 1.2 °F 21.2 °F 100% 30.05 in 0.5 mi West 38.0 mph 44.9 mph 0.00 in Fog , Snow Snow
2:20 AM 21.2 °F 1.7 °F 21.2 °F 100% 30.05 in 0.2 mi West 35.7 mph 44.9 mph 0.00 in Fog , Snow Heavy Snow
2:48 AM 21.2 °F 1.9 °F 19.4 °F 93% 30.05 in 0.5 mi West 34.5 mph 42.6 mph 0.00 in Fog , Snow Snow
3:01 AM 21.0 °F 1.4 °F 19.9 °F 96% 30.06 in 0.5 mi West 35.7 mph 43.7 mph 0.00 in Fog , Snow Snow
3:15 AM 21.2 °F 1.4 °F 19.4 °F 93% 30.06 in 0.2 mi West 36.8 mph 47.2 mph 0.00 in Fog , Snow Heavy Snow
3:28 AM 21.2 °F 1.4 °F 19.4 °F 93% 30.06 in 0.5 mi West 36.8 mph 43.7 mph 0.00 in Fog , Snow Snow
3:49 AM 19.4 °F -1.3 °F 19.4 °F 100% 30.07 in 0.2 mi West 38.0 mph 46.0 mph 0.00 in Fog , Snow Heavy Snow
4:01 AM 19.9 °F -0.6 °F 19.9 °F 100% 30.07 in 0.2 mi West 38.0 mph 46.0 mph 0.00 in Fog , Snow Heavy Snow
5:01 AM 21.0 °F - 19.9 °F 96% 30.08 in 0.2 mi North - - 0.00 in Fog , Snow Heavy Snow
5:23 AM 21.2 °F - 21.2 °F 100% 30.10 in 0.5 mi North - - 0.00 in Fog , Snow Snow
5:33 AM 21.2 °F 0.7 °F 19.4 °F 93% 30.10 in 0.2 mi West 40.3 mph 46.0 mph 0.00 in Fog , Snow Heavy Snow
5:47 AM 21.2 °F 0.9 °F 21.2 °F 100% 30.09 in 0.5 mi West 39.1 mph 43.7 mph 0.00 in Fog , Snow Snow
6:01 AM 21.0 °F 0.9 °F 21.0 °F 100% 30.10 in 0.5 mi West 38.0 mph 46.0 mph 0.00 in Fog , Snow Snow
6:28 AM 21.2 °F 0.9 °F 21.2 °F 100% 30.10 in 0.8 mi West 39.1 mph 47.2 mph 0.00 in Snow Light Snow
6:47 AM 21.2 °F 1.2 °F 19.4 °F 93% 30.09 in 0.5 mi West 38.0 mph 46.0 mph 0.00 in Fog , Snow Snow
7:01 AM 21.0 °F 0.5 °F 19.9 °F 96% 30.10 in 0.5 mi West 40.3 mph 46.0 mph 0.00 in Fog , Snow Snow
7:28 AM 21.2 °F 0.7 °F 19.4 °F 93% 30.11 in 0.8 mi West 40.3 mph 44.9 mph 0.00 in Snow Light Snow
8:01 AM 21.0 °F 0.5 °F 19.9 °F 96% 30.12 in 0.8 mi West 40.3 mph 46.0 mph 0.00 in Snow Light Snow
8:25 AM 21.2 °F 0.9 °F 21.2 °F 100% 30.11 in 0.5 mi West 39.1 mph 46.0 mph 0.00 in Fog , Snow Snow
8:35 AM 21.2 °F 1.2 °F 21.2 °F 100% 30.11 in 1.0 mi West 38.0 mph 46.0 mph 0.00 in Snow Light Snow
8:50 AM 21.2 °F 0.9 °F 21.2 °F 100% 30.11 in 0.8 mi West 39.1 mph 43.7 mph 0.00 in Snow Light Snow
9:01 AM 21.0 °F 0.5 °F 21.0 °F 100% 30.12 in 0.8 mi West 40.3 mph 44.9 mph 0.00 in Snow Light Snow
9:08 AM 21.2 °F 0.7 °F 21.2 °F 100% 30.12 in 0.5 mi West 40.3 mph 44.9 mph 0.00 in Fog , Snow Snow
9:30 AM 21.2 °F 0.9 °F 21.2 °F 100% 30.12 in 0.2 mi West 39.1 mph 46.0 mph 0.00 in Fog , Snow Heavy Snow
9:53 AM 21.2 °F 2.2 °F 21.2 °F 100% 30.12 in 0.8 mi West 33.4 mph 40.3 mph 0.00 in Snow Light Snow
10:01 AM 21.0 °F 2.2 °F 21.0 °F 100% 30.12 in 0.8 mi West 32.2 mph 41.4 mph 0.00 in Snow Light Snow
10:16 AM 21.2 °F 1.9 °F 21.2 °F 100% 30.12 in 0.5 mi West 34.5 mph 41.4 mph 0.00 in Fog , Snow Light Snow
11:01 AM 21.0 °F 1.4 °F 21.0 °F 100% 30.13 in 0.5 mi West 35.7 mph 41.4 mph 0.00 in Fog , Snow Light Snow
11:09 AM 21.2 °F 2.4 °F 21.2 °F 100% 30.12 in 0.8 mi West 32.2 mph 41.4 mph 0.00 in Snow Light Snow
11:16 AM 21.2 °F 3.3 °F 21.2 °F 100% 30.12 in 1.0 mi West 28.8 mph 36.8 mph 0.00 in Snow Light Snow
11:23 AM 21.2 °F 1.4 °F 21.2 °F 100% 30.13 in 1.2 mi West 36.8 mph 42.6 mph 0.00 in Snow Light Snow
11:29 AM 21.2 °F 1.7 °F 21.2 °F 100% 30.13 in 0.8 mi West 35.7 mph 42.6 mph 0.00 in Snow Light Snow
11:42 AM 21.2 °F 1.9 °F 21.2 °F 100% 30.12 in 0.5 mi West 34.5 mph 40.3 mph 0.00 in Fog , Snow Light Snow
12:01 PM 21.2 °F 1.9 °F 21.2 °F 100% 30.12 in 0.8 mi West 34.5 mph 40.3 mph 0.00 in Snow Light Snow
12:08 PM 21.2 °F 2.2 °F 21.2 °F 100% 30.12 in 1.0 mi West 33.4 mph 40.3 mph 0.00 in Snow Light Snow
12:22 PM 21.2 °F 2.2 °F 21.2 °F 100% 30.12 in 1.2 mi West 33.4 mph 39.1 mph 0.00 in Snow Light Snow
12:38 PM 21.2 °F 1.9 °F 21.2 °F 100% 30.13 in 2.5 mi West 34.5 mph - 0.00 in Snow Light Snow
12:48 PM 21.2 °F 2.4 °F 21.2 °F 100% 30.12 in 1.5 mi West 32.2 mph 36.8 mph 0.00 in Snow Light Snow
12:58 PM 21.2 °F 2.4 °F 21.2 °F 100% 30.13 in 2.0 mi West 32.2 mph 39.1 mph 0.00 in Snow Light Snow
1:01 PM 21.9 °F 3.1 °F 21.0 °F 96% 30.13 in 2.0 mi West 33.4 mph 39.1 mph 0.00 in Snow Light Snow
1:10 PM 21.2 °F 2.2 °F 21.2 °F 100% 30.13 in 1.0 mi West 33.4 mph - 0.00 in Snow Light Snow
1:15 PM 21.2 °F 2.4 °F 21.2 °F 100% 30.13 in 0.5 mi West 32.2 mph - 0.00 in Fog , Snow Light Snow
1:44 PM 21.2 °F 2.7 °F 21.2 °F 100% 30.13 in 1.0 mi West 31.1 mph 41.4 mph 0.00 in Snow Light Snow
2:01 PM 21.2 °F 2.2 °F 21.2 °F 100% 30.13 in 1.2 mi West 33.4 mph 40.3 mph 0.00 in Snow Light Snow
2:28 PM 23.0 °F 3.9 °F 21.2 °F 93% 30.12 in 0.8 mi West 36.8 mph 42.6 mph 0.00 in Snow Light Snow
2:46 PM 23.0 °F 3.9 °F 21.2 °F 93% 30.12 in 0.5 mi West 36.8 mph 42.6 mph 0.00 in Fog , Snow Light Snow
3:01 PM 23.0 °F 3.7 °F 21.9 °F 96% 30.13 in 0.5 mi West 38.0 mph 43.7 mph 0.00 in Fog , Snow Light Snow
3:19 PM 23.0 °F 7.6 °F 23.0 °F 100% 30.12 in 1.0 mi West 21.9 mph 44.9 mph 0.00 in Snow Light Snow
3:36 PM 23.0 °F 3.9 °F 23.0 °F 100% 30.12 in 0.8 mi West 36.8 mph 43.7 mph 0.00 in Snow Light Snow
3:57 PM 24.8 °F 7.1 °F 23.0 °F 93% 30.12 in 1.2 mi West 33.4 mph 44.9 mph 0.00 in Snow Light Snow
4:01 PM 24.1 °F 6.9 °F 23.0 °F 96% 30.12 in 1.2 mi West 29.9 mph 44.9 mph 0.00 in Snow Light Snow
4:18 PM 24.8 °F 7.9 °F 24.8 °F 100% 30.12 in 1.0 mi West 29.9 mph 36.8 mph 0.00 in Snow Light Snow
4:25 PM 24.8 °F 7.1 °F 24.8 °F 100% 30.12 in 1.5 mi West 33.4 mph 38.0 mph 0.00 in Snow Light Snow
4:37 PM 24.8 °F 8.7 °F 24.8 °F 100% 30.11 in 3.0 mi West 26.5 mph 35.7 mph 0.00 in Snow Light Snow
5:01 PM 26.1 °F 17.6 °F 26.1 °F 100% 30.11 in 9.0 mi NW 8.1 mph - 0.00 in Snow Light Snow
5:24 PM 28.4 °F 16.2 °F 26.6 °F 93% 30.11 in 8.0 mi North 17.3 mph - 0.00 in Snow Light Snow
5:35 PM 28.4 °F 14.7 °F 24.8 °F 86% 30.11 in 9.0 mi NNE 21.9 mph - 0.00 in Snow Light Snow
5:56 PM 28.4 °F 15.8 °F 26.6 °F 93% 30.12 in 9.0 mi NNE 18.4 mph - 0.00 in Snow Light Snow
6:01 PM 28.0 °F 15.7 °F 26.1 °F 92% 30.12 in 9.0 mi NNE 17.3 mph - 0.00 in Snow Light Snow
7:01 PM 28.0 °F 14.6 °F 25.0 °F 88% 30.14 in 9.0 mi NNE 20.7 mph - 0.00 in Snow Light Snow
8:01 PM 28.0 °F 15.7 °F 24.1 °F 85% 30.17 in 9.0 mi NNE 17.3 mph - 0.00 in Snow Light Snow
8:53 PM 26.6 °F 13.8 °F 26.6 °F 100% 30.19 in 2.5 mi NNE 17.3 mph - 0.00 in Snow Light Snow
9:01 PM 26.6 °F 14.3 °F 26.6 °F 100% 30.19 in 3.0 mi North 16.1 mph - 0.00 in Snow Light Snow
9:14 PM 26.6 °F 11.4 °F 26.6 °F 100% 30.19 in 2.0 mi North 25.3 mph - 0.00 in Snow Light Snow
9:22 PM 26.6 °F 13.1 °F 26.6 °F 100% 30.20 in 1.0 mi NNE 19.6 mph - 0.00 in Snow Light Snow
9:30 PM 26.6 °F 13.8 °F 26.6 °F 100% 30.20 in 1.5 mi NNE 17.3 mph - 0.00 in Snow Light Snow
9:37 PM 26.6 °F 15.2 °F 26.6 °F 100% 30.20 in 7.0 mi NNE 13.8 mph - 0.00 in Snow Light Snow
9:44 PM 26.6 °F 12.7 °F 24.8 °F 93% 30.20 in 9.0 mi North 20.7 mph - 0.00 in Snow Light Snow
10:01 PM 28.0 °F 15.7 °F 23.0 °F 81% 30.21 in 9.0 mi North 17.3 mph - 0.00 in   Overcast
10:30 PM 28.4 °F 18.0 °F 21.2 °F 74% 30.21 in 10.0 mi North 12.7 mph - N/A   Overcast
11:01 PM 28.0 °F 17.0 °F 21.9 °F 78% 30.22 in 10.0 mi North 13.8 mph - N/A   Overcast